Regional Weather Roundup
Issued by NWS

Home | Current Version | Previous Version | Text Only | Print | Product List | Glossary Off
Versions: 1 2 3 4 5 6 7 8 9 10 11 12 13 14 15 16 17 18 19 20 21 22 23 24 25 26 27 28 29 30 31 32 33 34 35 36 37 38 39 40 41 42 43 44 45 46 47 48 49 50

000
ASUS43 KMKX 291859
RWRWI

WISCONSIN REGIONAL WEATHER ROUNDUP
NATIONAL WEATHER SERVICE MILWAUKEE/SULLIVAN WI
200 PM CDT SUN MAR 29 2015

NOTE: "FAIR" INDICATES FEW OR NO CLOUDS BELOW 12,000 FEET WITH NO
SIGNIFICANT WEATHER AND/OR OBSTRUCTIONS TO VISIBILITY.

WIZ001-002-006>008-014>016-023>028-292000-
NORTHWEST WISCONSIN

CITY           SKY/WX    TMP DP  RH WIND       PRES   REMARKS
SUPERIOR ARPT  CLOUDY    42  38  86 NW20G26   29.56R
ASHLAND        LGT SNOW  33  32  96 SW10      29.52R FOG     WCI  25
HAYWARD        LGT SNOW  34  32  92 W8        29.56R FOG     WCI  27
SIREN          CLOUDY    39  37  95 NW12G17   29.61R WCI  31
CUMBERLAND     LGT SNOW  32  32 100 NW15G22   29.59R WCI  22
RICE LAKE      LGT SNOW  34  32  91 W14G20    29.61R WCI  25
CHETEK         LGT RAIN  39  38  95 W14G25    29.57R WCI  31
LADYSMITH      CLOUDY    35  34  97 W7        29.55S FOG     WCI  29
EAU CLAIRE     NOT AVBL
MENOMONIE      LGT RAIN  41  38  87 NW21G40   29.62R
NEW RICHMOND   CLOUDY    39  38  99 NW15G22   29.65R WCI  30
OSCEOLA        CLOUDY    40  40  99 W14       29.68R WCI  33
$$

WIZ003>005-009-010-017-018-292000-
NORTH CENTRAL WISCONSIN

CITY           SKY/WX    TMP DP  RH WIND       PRES   REMARKS
MANITOWISH WTR HVY SNOW  32  32 100 SW6       29.48F VSB 1/4 WCI  26
ARBOR VITAE    HVY SNOW  34  32  93 SW6       29.48F VSB<1/4 WCI  29
WOODRUFF       HVY SNOW  34  32  93 SW6       29.48F VSB<1/4 WCI  29
RHINELANDER    LGT SNOW  32  30  92 SW14      29.49F FOG     WCI  22
EAGLE RIVER    LGT SNOW  32  29  88 SW9       29.48F WCI  24
LAND O LAKES   LGT SNOW  32  32  97 SW8       29.48F VSB 1   WCI  25
PHILLIPS       CLOUDY    32  32  99 SW6       29.50S WCI  27
TOMAHAWK       LGT RAIN  32  31  96 CALM      29.51F
MEDFORD        DRZL/FOG  33  32  98 SW8       29.53F VSB 3/4 WCI  25
MERRILL        LGT SNOW  33  33 100 SW7       29.53F WCI  26
$$

WIZ029-030-035-036-043>047-292000-
CENTRAL WISCONSIN

CITY           SKY/WX    TMP DP  RH WIND       PRES   REMARKS
WAUSAU         LGT RAIN  34  32  92 SW16G25   29.52F FOG     WCI  24
MOSINEE        CLOUDY    34  34 100 SW13G20   29.56F FOG     WCI  25
MARSHFIELD     LGT RAIN  38  35  89 SW17G25   29.55F FOG     WCI  28
STEVENS POINT  CLOUDY    32  31  96 SW16G24   29.58F WCI  21
WAUPACA        CLOUDY    37  33  85 SW15G23   29.61F WCI  28
WAUTOMA        NOT AVBL
WISC RAPIDS    CLOUDY    37  32  82 SW15G23   29.60F WCI  28
CAMP DOUGLAS   NOT AVBL
$$

WIZ011>013-019>022-031-037>040-048>050-292000-
NORTHEAST WISCONSIN

CITY           SKY/WX    TMP DP  RH WIND       PRES   REMARKS
ANTIGO         MIX PCPN  32  31  98 SW12      29.53F WCI  23
SHAWANO        DRIZZLE   35  32  90 S9        29.58F WCI  27
OCONTO         CLOUDY    32  32  99 SW16G23   29.61F WCI  21
STURGEON BAY   CLOUDY    32  28  86 S16G22    29.62F WCI  21
GREEN BAY      NOT AVBL
MANITOWOC      NOT AVBL
APPLETON       CLOUDY    34  30  86 SW16G23   29.63F WCI  23
CLINTONVILLE   CLOUDY    32  32 100 SW13      29.59F WCI  22
OSHKOSH        CLOUDY    35  30  82 SW23G35   29.63F WCI  23
$$

WIZ032>034-041-042-053>061-292000-
SOUTHWEST WISCONSIN

CITY           SKY/WX    TMP DP  RH WIND       PRES   REMARKS
LA CROSSE      CLOUDY    48  40  73 W33G43    29.63R
SPARTA         CLOUDY    42  36  76 SW9       29.62F
VIROQUA        CLOUDY    40  39  95 SW15      29.64F WCI  32
BOSCOBEL       PTSUNNY   47  38  71 SW18G24   29.69F
PRAIRIE DU CHI MOSUNNY   47  38  70 S8        29.71F
PLATTEVILLE    CLOUDY    39  37  91 S17G26    29.76F WCI  30
$$

WIZ056-057-062-063-064-067-068-292000-
SOUTH CENTRAL WISCONSIN

CITY           SKY/WX    TMP DP  RH WIND       PRES   REMARKS
REEDSBURG      CLOUDY    36  33  91 SW17G23   29.69F WCI  25
BARABOO/DELLS  CLOUDY    35  32  88 SW14G26   29.68S WCI  26
LONE ROCK      NOT AVBL
MINERAL POINT  CLOUDY    37  34  87 S20G28    29.73F WCI  27
MADISON        CLOUDY    35  30  82 S14G25    29.73F WCI  26
MIDDLETON      CLOUDY    36  32  86 SW18G24   29.73F WCI  26
WATERTOWN      CLOUDY    33  32  96 SW15G23   29.74F WCI  23
MONROE         CLOUDY    34  32  93 S23G31    29.76F WCI  22
JANESVILLE     CLOUDY    36  32  87 S14G20    29.78F WCI  27
$$

WIZ051-052-058>065-066-070>072-292000-
SOUTHEAST WISCONSIN

CITY           SKY/WX    TMP DP  RH WIND       PRES   REMARKS
MILWAUKEE      CLOUDY    34  29  82 SW22G37   29.77F WCI  22
WAUKESHA       CLOUDY    32  28  86 S16G26    29.76F WCI  21
MILWAUKEE/TIMM CLOUDY    34  30  86 SW18G33   29.77F WCI  23
RACINE         CLOUDY    35  29  78 SW24G31   29.81F WCI  23
BURLINGTON     CLOUDY    32  29  89 SW15G25   29.80F WCI  22
KENOSHA        CLOUDY    34  30  85 SW23G32   29.81F WCI  22
FOND DU LAC    CLOUDY    35  30  82 SW26G39   29.66F WCI  22
SHEBOYGAN      CLOUDY    34  31  88 SW25G32   29.69F WCI  21
WEST BEND      CLOUDY    32  30  93 SW18      29.73F WCI  20
JUNEAU         CLOUDY    32  30  91 S17       29.74F WCI  21
$$

LSZ147-162-292000-
LAKE SUPERIOR

STATION/POSITION TIME  TEMP    WIND        PRES    WAVE
                       AIR SEA DIR/SP/G            HT/PER
                 (UTC) (F)     (DEG/KT/KT) (MB)    (FT/S)
DEVILS ISLAND    1800   33     250/ 18/ 22  998.6F
PORT WING        1840   37     250/ 13/ 19 1000.3R
SAXON HARBOR     1800   34     200/  8/ 13  998.6S
$$

LMZ867-665-643>646-292000-
LAKE MICHIGAN

STATION/POSITION TIME  TEMP    WIND        PRES    WAVE
                       AIR SEA DIR/SP/G            HT/PER
                 (UTC) (F)     (DEG/KT/KT) (MB)    (FT/S)
SISTER BAY       1732   32     180/ 14/ 17   N/A
KEWAUNEE LAKESHO 1812   33     200/ 18/ 25 1005.1F
SHEBOYGAN LAKESH 1800   34     200/ 25/ 28 1008.4F
PORT WASHINGTON  1822   35     210/ 11/ 21 1008.8F
MILWAUKEE LAKESH 1800   35     210/ 25/ 31   N/A
KENOSHA   LAKESH 1800   36     200/ 23/ 33 1010.2F
$$

TC  - TEMPERATURE IN CELSIUS
VSB - VISIBILITY IN STATUTE MILES
WCI - WIND CHILL INDEX
HX  - HEAT INDEX




USA.gov is the U.S. government's official web portal to all federal, state and local government web resources and services.